Location: ??????????
(41.2581°N, 22.8006°E)
Time: 15:18:42
(UTC+00:00)

Cosmos 1745 Rocket - Pass Details

Date: 13 December 2025
Orbit: 951 x 998 km, 83.0° (Epoch: 15 January)

Event Time Altitude Azimuth Distance (km) Brightness Sun altitude
Rises 17:25:24 0° 353° (N) 3,655 7.0 -26.4°
Reaches altitude 10° 17:27:56 10° 355° (N) 2,699 6.3 -26.9°
Maximum altitude 17:34:06 79° 83° (E) 974 3.8 -28.0°
Enters shadow 17:34:32 75° 129° (SE) 989 3.8 -28.1°
Exits shadow 17:36:59 34° 165° (SSE) 1,527 4.9 -28.6°
Drops below altitude 10° 17:40:12 10° 170° (S) 2,667 6.2 -29.2°
Sets 17:42:41 0° 171° (S) 3,608 7.0 -29.6°
